Wind_Speed
79 76 76 80 83 75 80 84 87 89 89 86 85 87 83 79 76 78 81 83 84 83 80 79 78 79 75 70 75 75 75 76 79 78 76 76 72 72 71 72 74 72 71 73 72 59 57
84 82 80 80 80 79 81 82 86 90 91 90 87 89 86 83 81 81 83 85 87 86 82 79 71 70 71 70 80 81 80 79 79 76 80 81 79 80 74 76 73 67 65 60 65 69 71
86 86 86 84 85 87 82 77 81 86 85 77 78 88 88 85 85 83 85 87 82 72 74 73 73 75 71 73 76 81 78 83 85 79 73 75 73 71 76 75 72 70 68 71 65 66 63
85 86 84 89 89 93 98 91 93 91 91 89 84 78 79 77 77 77 78 79 79 78 77 76 73 71 67 78 79 79 80 83 82 79 73 79 72 66 66 67 70 70 67 65 69 69 66
91 90 90 89 90 91 95 95 97 95 97 94 89 86 89 90 83 80 82 82 81 80 76 75 77 74 73 78 81 80 80 83 82 84 82 82 78 72 69 68 61 65 69 68 63 71 74
93 94 94 94 97 97 93 93 96 98 99 100 92 91 90 88 86 86 87 86 86 85 82 78 81 79 79 82 82 83 83 83 84 86 88 86 81 78 76 79 75 70 64 61 70 76 85
94 95 94 93 89 97 93 97 97 97 98 94 90 92 91 89 91 92 92 89 91 87 82 79 81 80 80 83 87 83 82 85 85 85 84 87 83 78 82 81 79 80 77 75 77 83 86
98 92 95 93 96 95 97 99 95 95 100 95 95 95 94 92 92 91 93 90 88 87 86 81 79 78 80 84 78 82 86 85 86 87 88 86 81 82 87 86 84 84 82 77 78 87 89
101 100 93 96 99 96 101 98 94 92 89 91 92 94 94 92 93 86 91 90 90 83 82 75 78 74 80 80 76 75 90 84 83 85 86 87 78 82 85 84 88 89 84 87 89 95 92
105 108 105 105 106 102 100 93 89 96 92 87 86 91 86 93 92 86 82 83 85 78 78 69 77 74 75 77 79 78 81 85 81 83 90 85 82 89 92 87 96 94 97 99 97 99 93
115 112 110 109 105 97 97 98 97 98 97 94 88 90 90 93 97 93 91 90 93 91 86 75 78 79 86 85 82 86 89 92 90 94 94 78 86 93 93 93 102 94 105 109 108 107 108
118 118 112 108 103 103 100 100 109 101 104 104 102 99 101 103 107 101 99 103 101 100 89 90 93 95 89 93 96 99 98 99 101 102 100 86 102 97 98 102 105 108 110 115 116 115 115
119 118 114 107 112 107 111 107 113 115 107 111 108 108 110 112 114 108 111 111 106 100 97 101 108 107 103 99 97 101 110 109 109 112 110 109 105 106 108 111 111 118 118 121 122 116 117
116 119 120 119 115 111 116 115 119 119 117 115 118 118 117 118 124 119 119 119 114 106 108 115 110 113 115 112 109 105 109 116 116 118 121 123 114 108 117 119 117 120 122 127 123 125 123
121 120 127 124 120 118 120 123 120 124 122 125 122 127 124 123 130 133 129 126 121 118 118 122 126 122 120 120 120 116 117 121 120 126 128 129 131 114 119 125 127 116 126 119 130 127 129
126 128 130 130 127 126 123 122 124 130 132 132 129 129 130 131 135 138 139 131 126 125 128 133 132 131 127 127 133 132 115 120 123 122 127 134 137 132 126 130 132 130 127 129 128 129 128
137 135 137 138 134 134 133 132 136 136 139 138 134 134 137 139 144 142 139 132 130 131 136 139 139 138 132 131 135 138 140 134 123 122 123 130 135 137 134 132 133 140 133 132 131 131 131
145 144 144 141 142 141 139 139 139 137 141 141 145 143 137 134 139 132 131 138 136 133 141 142 140 139 138 139 140 142 131 130 128 130 131 129 126 127 126 118 128 131 133 134 131 129 125
150 150 146 146 144 141 143 145 145 142 144 149 145 137 137 143 145 148 141 147 144 140 143 145 143 141 139 142 138 140 139 129 130 142 147 139 146 137 128 117 117 120 121 123 124 122 117
150 152 155 150 150 148 152 153 154 152 153 155 154 154 150 144 143 144 144 138 142 147 148 147 143 146 150 144 152 146 143 140 139 127 123 126 111 112 112 107 110 108 94 97 104 106 105
149 154 154 146 149 148 152 155 158 158 159 156 151 150 145 143 143 147 154 149 153 156 155 149 154 151 157 156 150 132 133 119 113 102 100 100 98 102 100 95 99 96 85 84 90 91 94
152 151 151 154 156 158 156 153 157 159 158 155 150 154 144 149 158 158 157 158 155 158 154 154 157 153 137 109 114 106 105 105 97 92 90 87 85 90 90 90 89 87 76 83 82 82 83
136 155 159 166 158 165 162 168 162 164 159 156 152 154 158 153 154 160 150 148 140 128 123 112 112 103 98 95 89 88 86 83 81 79 79 80 78 80 75 83 81 73 67 72 75 74 79
108 116 128 139 148 144 144 139 156 159 152 159 154 158 153 142 140 136 125 122 110 105 99 95 90 87 83 82 81 79 74 69 68 68 71 73 75 73 66 74 73 58 59 61 69 71 77
87 91 96 100 104 103 109 112 119 128 128 119 117 118 119 111 107 102 98 90 86 85 83 78 76 73 73 72 69 66 64 60 59 60 66 68 68 65 62 66 60 48 60 60 67 71 73
70 74 77 80 84 87 89 91 92 94 93 91 94 88 86 84 85 81 76 71 68 67 67 70 68 70 66 62 60 55 54 54 48 51 59 61 59 60 58 56 50 49 58 61 68 66 71
57 60 62 66 70 74 77 77 77 79 78 79 79 76 72 70 72 69 65 63 63 62 65 67 67 65 63 60 59 53 51 49 45 49 54 54 52 52 51 53 47 53 56 59 59 52 62
50 52 53 55 58 62 65 67 69 70 71 71 73 68 67 67 65 60 59 60 59 61 62 62 61 65 58 57 55 51 53 52 48 48 49 47 44 47 49 48 46 45 46 49 46 53 59
41 44 46 49 52 54 55 57 59 61 62 63 63 64 63 61 60 59 59 58 59 59 60 60 62 60 57 55 52 51 54 51 47 49 43 42 42 43 47 42 41 40 44 43 45 51 51
Wind_Direction
249 252 255 254 251 255 253 254 253 251 254 262 265 263 265 264 264 265 266 269 267 262 262 264 266 266 270 270 269 272 271 273 273 274 275 273 271 272 274 275 276 275 271 275 280 281 275
252 255 251 254 252 255 255 258 259 257 262 262 261 262 265 264 266 267 268 266 265 265 264 265 267 264 269 269 269 273 273 271 271 273 277 277 277 276 275 274 274 272 274 270 271 275 274
253 253 250 250 249 246 251 250 253 256 255 255 259 259 260 261 264 265 262 262 263 264 267 267 268 267 267 271 270 273 271 268 268 272 276 278 277 276 271 270 270 264 262 270 279 277 279
255 253 251 249 250 249 252 251 253 256 255 255 255 255 256 258 258 256 256 260 262 264 267 271 270 269 268 270 270 270 271 270 268 267 271 276 274 273 271 270 269 272 271 270 278 279 281
256 254 254 254 253 255 256 254 255 256 257 261 262 266 267 266 265 264 264 264 266 268 268 270 269 269 266 269 270 270 270 268 267 265 272 272 272 270 270 275 273 272 268 269 272 278 278
257 257 256 255 254 254 254 257 258 257 259 260 261 261 262 264 263 263 267 268 268 267 268 267 269 270 269 267 267 269 269 269 269 269 271 269 270 270 274 273 269 265 266 267 276 277 277
255 258 257 255 255 252 256 254 255 259 259 260 260 261 264 266 267 266 265 267 269 266 266 265 265 269 268 266 266 269 269 268 271 271 270 268 270 269 269 270 270 268 269 270 273 271 272
255 257 256 254 258 253 254 255 256 259 258 260 260 262 263 262 264 265 264 265 265 266 263 265 268 267 266 268 266 267 266 268 270 270 273 273 272 273 269 270 271 270 270 271 270 271 273
260 259 257 255 259 258 253 255 255 258 259 259 260 260 262 262 263 263 263 263 265 264 265 261 265 265 264 269 267 266 267 265 266 267 270 270 275 273 272 271 273 273 273 271 268 270 272
258 259 259 256 256 256 254 255 256 256 256 259 259 257 263 261 263 263 262 265 262 264 261 257 257 265 265 270 263 268 269 269 268 269 267 265 270 274 273 273 274 270 276 274 272 272 271
256 256 256 259 257 255 253 252 258 256 259 263 261 259 267 267 268 268 274 275 273 274 273 259 260 261 262 272 271 275 277 277 278 276 271 266 268 271 275 274 272 275 274 274 273 273 270
251 252 252 255 257 260 260 255 260 262 263 267 267 270 276 275 274 274 275 277 277 278 279 280 278 269 267 275 279 279 277 279 278 280 279 278 276 274 274 275 277 276 275 276 277 276 272
250 252 256 256 254 259 259 260 260 263 263 265 263 269 274 275 276 275 275 276 275 277 282 280 279 278 276 276 275 276 275 276 278 276 278 275 273 271 272 271 274 277 277 275 275 275 275
250 251 252 257 256 261 260 262 260 263 265 267 268 267 270 273 275 276 276 278 278 281 275 278 278 279 280 279 275 272 273 275 275 273 270 271 268 269 268 269 269 271 275 274 277 275 276
249 250 252 255 255 256 258 258 258 261 264 267 267 271 273 273 273 278 278 279 283 284 279 280 281 280 279 281 279 275 271 269 269 271 268 269 270 265 265 264 266 269 269 274 274 277 277
247 250 251 253 254 255 256 254 257 260 261 263 265 268 270 272 273 275 276 280 281 277 277 279 282 283 284 287 288 286 279 272 268 268 270 271 272 269 265 265 265 264 265 266 268 272 274
249 248 251 254 254 256 257 256 257 260 258 260 263 266 268 269 270 271 274 276 278 276 278 281 282 284 285 284 284 285 284 280 276 274 273 268 271 271 269 267 267 268 264 264 266 269 272
249 250 252 253 254 256 254 256 257 257 254 257 261 265 269 268 270 273 271 273 276 275 278 281 282 280 280 282 281 281 284 282 284 288 287 282 274 269 263 267 267 267 267 267 267 267 269
251 253 253 254 257 256 257 259 261 259 257 258 263 264 266 270 270 273 272 273 275 278 280 281 280 281 285 282 283 281 284 282 282 284 283 282 283 282 279 275 268 264 263 264 264 267 266
251 250 251 254 258 258 259 262 263 262 262 262 262 266 268 268 269 272 274 272 275 277 281 281 282 280 285 285 284 284 283 282 281 276 276 275 271 269 268 271 272 270 267 264 265 264 263
250 251 252 255 255 255 259 261 263 266 268 267 270 270 269 269 270 271 273 275 278 279 281 282 286 283 284 286 281 280 280 278 277 276 273 270 267 265 267 267 268 268 266 264 264 262 261
249 253 253 256 259 262 263 264 263 262 268 270 270 271 269 269 273 273 275 278 276 276 277 277 279 279 279 276 275 274 273 274 273 270 265 265 263 264 266 267 265 265 268 261 260 261 262
248 251 250 253 256 260 261 261 263 264 266 267 268 266 273 271 271 272 275 276 280 276 278 277 276 275 275 274 274 274 273 270 269 269 269 269 265 264 262 264 264 264 262 262 260 257 255
246 247 249 253 255 256 258 259 260 263 265 267 268 267 271 273 271 274 276 276 274 277 276 278 275 273 274 275 273 273 275 275 274 273 270 266 265 263 263 262 264 262 260 253 253 251 249
249 249 250 250 253 255 254 257 258 259 263 262 263 265 267 269 272 270 270 271 272 272 272 273 271 270 269 269 272 275 276 274 271 268 266 264 262 261 259 258 261 259 252 249 248 250 251
252 250 250 250 250 252 253 253 254 255 256 260 260 262 263 264 267 267 267 267 270 270 271 271 273 271 272 275 275 273 270 268 267 266 265 264 264 263 261 261 258 246 248 246 245 245 249
253 252 251 249 249 249 249 250 250 252 253 255 256 257 259 260 260 260 263 266 266 268 269 269 268 271 272 273 275 274 274 271 268 265 265 263 262 261 259 258 253 249 250 248 250 247 250
253 252 250 249 247 246 247 248 248 248 249 251 253 255 256 257 258 261 263 264 266 265 266 268 270 269 271 271 272 271 268 266 263 262 264 264 261 259 256 255 255 252 252 252 247 244 245
250 250 250 249 247 245 245 246 246 246 247 248 251 252 254 257 258 260 263 264 264 265 266 267 267 269 271 272 272 268 264 261 260 261 262 264 260 259 256 255 253 247 244 244 242 244 250
Height
10698 10702 10706 10710 10714 10718 10723 10726 10729 10733 10735 10738 10741 10744 10748 10751 10753 10755 10756 10758 10760 10761 10763 10765 10768 10770 10773 10778 10764 10762 10766 10765 10763 10765 10765 10764 10764 10767 10772 10766 10763 10766 10767 10766 10766 10761 10759
10680 10685 10689 10693 10697 10701 10704 10707 10710 10713 10717 10720 10724 10727 10729 10732 10735 10737 10740 10742 10743 10744 10746 10750 10753 10756 10760 10763 10746 10747 10749 10752 10749 10750 10747 10745 10748 10751 10758 10752 10751 10752 10752 10753 10747 10742 10746
10659 10664 10668 10674 10679 10683 10687 10690 10694 10697 10701 10703 10706 10709 10712 10714 10717 10718 10720 10722 10725 10727 10731 10734 10739 10743 10750 10737 10737 10730 10733 10733 10732 10736 10735 10726 10732 10736 10736 10737 10736 10740 10744 10737 10731 10722 10729
10637 10643 10648 10653 10657 10661 10665 10668 10671 10677 10681 10687 10688 10691 10694 10695 10699 10699 10700 10703 10705 10709 10713 10719 10723 10729 10736 10719 10719 10715 10715 10714 10717 10716 10721 10710 10716 10722 10720 10724 10722 10723 10726 10727 10713 10708 10711
10616 10621 10626 10632 10636 10640 10643 10648 10653 10657 10660 10664 10668 10669 10671 10673 10677 10679 10681 10683 10687 10693 10697 10705 10705 10710 10716 10708 10702 10699 10699 10698 10701 10698 10700 10697 10696 10704 10708 10707 10708 10701 10710 10713 10710 10692 10691
10594 10598 10603 10608 10613 10618 10624 10629 10632 10636 10639 10645 10647 10651 10652 10654 10656 10656 10659 10662 10667 10674 10683 10686 10687 10689 10692 10693 10684 10683 10686 10681 10676 10677 10681 10678 10681 10690 10692 10681 10692 10688 10692 10698 10695 10682 10667
10571 10575 10581 10586 10590 10596 10602 10607 10611 10614 10618 10620 10624 10628 10631 10633 10634 10635 10640 10642 10649 10656 10664 10665 10670 10671 10670 10667 10674 10674 10663 10661 10657 10658 10658 10657 10668 10678 10665 10662 10668 10669 10674 10681 10675 10658 10654
10545 10552 10558 10563 10569 10573 10577 10580 10585 10590 10596 10600 10603 10606 10609 10611 10612 10615 10619 10623 10630 10637 10647 10648 10648 10655 10647 10640 10664 10647 10642 10645 10642 10641 10634 10640 10657 10647 10645 10647 10647 10646 10651 10660 10657 10639 10629
10520 10527 10535 10541 10544 10546 10550 10553 10560 10568 10576 10578 10580 10584 10587 10589 10590 10595 10601 10604 10610 10613 10625 10640 10628 10632 10630 10625 10634 10632 10612 10628 10630 10627 10620 10619 10640 10628 10622 10628 10623 10623 10632 10626 10626 10616 10618
10500 10504 10509 10515 10519 10523 10528 10534 10541 10546 10551 10556 10559 10563 10566 10567 10568 10575 10581 10584 10586 10592 10600 10625 10611 10611 10608 10610 10607 10607 10599 10599 10612 10606 10593 10613 10621 10603 10602 10613 10591 10601 10594 10594 10600 10596 10609
10475 10481 10483 10487 10494 10503 10506 10513 10518 10522 10525 10529 10534 10539 10545 10543 10542 10549 10557 10561 10559 10566 10573 10593 10591 10592 10584 10586 10590 10588 10585 10575 10581 10573 10571 10610 10597 10586 10587 10590 10564 10588 10569 10565 10569 10569 10567
10450 10455 10462 10467 10473 10477 10482 10488 10493 10496 10500 10504 10508 10513 10517 10514 10514 10528 10529 10532 10538 10540 10563 10560 10559 10553 10564 10570 10566 10556 10560 10556 10553 10547 10548 10583 10554 10570 10573 10560 10555 10551 10549 10538 10534 10541 10536
10420 10424 10433 10439 10446 10453 10457 10462 10466 10470 10474 10480 10485 10490 10491 10487 10487 10500 10501 10502 10511 10528 10540 10533 10518 10520 10531 10539 10543 10538 10530 10536 10532 10527 10528 10531 10546 10543 10535 10531 10538 10518 10520 10514 10505 10519 10513
10393 10398 10405 10411 10418 10424 10429 10434 10440 10444 10448 10452 10456 10464 10466 10461 10459 10467 10470 10471 10488 10513 10509 10491 10496 10492 10491 10501 10508 10514 10509 10499 10504 10501 10498 10488 10510 10529 10516 10500 10509 10501 10496 10480 10486 10482 10487
10364 10372 10376 10382 10391 10400 10404 10410 10415 10417 10423 10426 10431 10433 10437 10431 10428 10432 10434 10444 10467 10471 10463 10451 10461 10464 10471 10462 10460 10473 10473 10467 10470 10459 10456 10455 10451 10491 10481 10470 10465 10492 10464 10478 10436 10451 10446
10335 10343 10347 10352 10363 10372 10378 10385 10389 10394 10399 10403 10407 10410 10413 10404 10400 10401 10405 10424 10435 10428 10423 10417 10428 10431 10437 10436 10421 10412 10430 10427 10433 10431 10422 10418 10410 10434 10445 10432 10436 10439 10446 10434 10428 10423 10422
10304 10310 10317 10323 10335 10342 10348 10355 10361 10365 10370 10377 10382 10385 10384 10378 10375 10376 10388 10401 10401 10392 10387 10388 10387 10395 10400 10407 10397 10388 10380 10384 10390 10389 10391 10385 10374 10390 10396 10407 10404 10397 10406 10406 10407 10401 10399
10273 10279 10286 10296 10304 10313 10315 10321 10328 10330 10338 10347 10349 10356 10359 10349 10347 10353 10360 10362 10369 10369 10360 10358 10358 10358 10361 10367 10366 10360 10357 10350 10350 10345 10340 10339 10343 10350 10363 10368 10362 10368 10370 10373 10376 10381 10387
10244 10251 10260 10265 10272 10280 10281 10288 10298 10301 10307 10313 10322 10323 10330 10327 10330 10333 10333 10330 10329 10338 10334 10326 10323 10326 10324 10323 10313 10319 10314 10319 10318 10315 10310 10313 10307 10306 10309 10315 10324 10327 10333 10337 10345 10342 10352
10215 10220 10226 10235 10240 10252 10256 10258 10262 10268 10274 10281 10290 10297 10304 10300 10304 10299 10297 10296 10299 10303 10301 10296 10291 10295 10294 10285 10274 10275 10278 10274 10275 10278 10273 10273 10280 10277 10274 10277 10273 10281 10301 10306 10306 10314 10320
10186 10187 10194 10207 10210 10224 10223 10225 10224 10228 10235 10242 10252 10266 10270 10271 10277 10268 10261 10267 10276 10270 10261 10263 10263 10261 10253 10247 10245 10242 10242 10230 10236 10240 10233 10240 10244 10240 10238 10248 10245 10251 10267 10275 10279 10287 10287
10157 10161 10167 10171 10175 10175 10189 10187 10200 10202 10202 10205 10222 10226 10236 10240 10243 10234 10233 10246 10238 10236 10231 10239 10229 10227 10216 10214 10212 10209 10210 10206 10203 10204 10204 10208 10212 10205 10211 10216 10219 10223 10247 10247 10253 10259 10262
10134 10145 10153 10152 10151 10155 10161 10161 10169 10176 10183 10183 10194 10200 10197 10205 10206 10207 10208 10204 10204 10197 10201 10197 10194 10191 10182 10185 10183 10182 10178 10180 10181 10178 10177 10178 10180 10179 10197 10187 10189 10208 10220 10218 10222 10229 10231
10107 10111 10116 10123 10130 10131 10133 10135 10150 10154 10154 10157 10157 10167 10174 10177 10175 10173 10171 10179 10174 10169 10171 10170 10167 10164 10161 10156 10155 10156 10157 10159 10157 10155 10152 10152 10153 10160 10174 10161 10168 10196 10197 10192 10189 10201 10202
10083 10087 10091 10095 10098 10102 10106 10111 10123 10127 10127 10128 10128 10142 10144 10151 10145 10150 10147 10154 10150 10147 10144 10144 10143 10142 10140 10137 10137 10140 10140 10140 10138 10137 10131 10131 10133 10141 10149 10146 10161 10177 10164 10169 10168 10172 10177
10059 10064 10068 10071 10075 10078 10083 10089 10098 10100 10103 10103 10109 10114 10123 10125 10127 10123 10128 10128 10128 10127 10124 10121 10123 10118 10118 10121 10121 10124 10121 10120 10125 10120 10112 10112 10120 10121 10126 10132 10144 10146 10141 10144 10146 10157 10158
10037 10040 10043 10047 10052 10057 10061 10066 10074 10077 10080 10085 10089 10096 10101 10103 10103 10106 10108 10111 10112 10111 10108 10105 10102 10102 10105 10107 10105 10106 10104 10104 10107 10102 10098 10100 10104 10107 10111 10114 10125 10123 10126 10129 10138 10151 10143
10019 10021 10025 10029 10034 10039 10043 10048 10054 10057 10063 10068 10067 10077 10081 10083 10085 10089 10093 10095 10093 10091 10090 10088 10089 10085 10091 10092 10091 10093 10090 10089 10091 10088 10086 10089 10093 10092 10095 10101 10108 10112 10116 10119 10127 10125 10125
10005 10007 10010 10013 10017 10022 10027 10031 10036 10040 10044 10049 10055 10058 10060 10065 10069 10074 10075 10077 10077 10078 10077 10075 10073 10073 10075 10074 10076 10075 10071 10073 10077 10072 10077 10076 10079 10081 10081 10090 10095 10101 10103 10109 10110 10110 10117